Flag for U.S.A. Weather past 2 weeks in Costa Mesa, California, U.S.A.

68 °F


Feels Like: 68 °F
Forecast: 68 / 91 °F
Wind: No wind

Location: John Wayne Airport-Orange County Airport

Current Time: Oct 9, 2015 at 5:24:17 AM

Latest Report: Oct 9, 2015 at 4:53 AM

Visibility: 10 mi

Pressure: 29.88 "Hg

Humidity: 84%

Dew point: 63 °F

Location of Costa MesaLocation

Historic Weather in Costa Mesa — Graph


Costa Mesa temperature yesterday

Maximum temperature yesterday: 84 °F (at 3:53 PM)
Minimum temperature yesterday: 66 °F (at 3:53 AM)
Average temperature yesterday: 74 °F

Past Weeks' High & Low Weather Summary

High87 °F (Sep 25, 1:53 PM)100% (Sep 26, 4:01 AM)30.10 "Hg (Sep 26, 4:01 AM)
Low61 °F (Oct 5, 2:53 AM)37% (Sep 25, 2:53 PM)29.55 "Hg (Oct 3, 6:53 PM)
Average73 °F73%29.85 "Hg
* Reported Sep 24 3:53 AM — Oct 9 3:53 AM, Costa Mesa, Weather by CustomWeather, © 2015

Note: Actual official high and low records may vary slightly from our data, if they occured in-between our weather recording intervals... More about our weather records


Costa Mesa weather history for previous 24 hours

Time TempWeatherWind HumidityBarometerVisibility
3:53 AM
Fri, Oct 9
69 °FClear.3 mph81%29.88 "Hg10 mi
2:53 AM69 °FClear.3 mph84%29.90 "Hg10 mi
1:53 AM70 °FClear.No wind79%29.91 "Hg10 mi
12:53 AM70 °FClear.No wind87%29.90 "Hg10 mi
11:53 PM
Thu, Oct 8
71 °FClear.No wind84%29.91 "Hg10 mi
10:53 PM72 °FPassing clouds.No wind81%29.91 "Hg8 mi
9:53 PM73 °FClear.No wind79%29.91 "Hg10 mi
8:53 PM74 °FClear.No wind79%29.92 "Hg10 mi
7:53 PM74 °FPassing clouds.5 mph76%29.92 "Hg10 mi
6:53 PM76 °FPassing clouds.5 mph69%29.91 "Hg10 mi
5:53 PM79 °FPassing clouds.5 mph67%29.90 "Hg10 mi
4:53 PM83 °FPassing clouds.8 mph48%29.89 "Hg10 mi
3:53 PM84 °FPassing clouds.6 mph45%29.89 "Hg10 mi
2:53 PM83 °FPassing clouds.7 mph53%29.91 "Hg10 mi
1:53 PM83 °FScattered clouds.7 mph57%29.93 "Hg10 mi
12:53 PM83 °FScattered clouds.6 mph55%29.96 "Hg10 mi
11:53 AM80 °FScattered clouds.6 mph60%29.98 "Hg10 mi
10:53 AM79 °FScattered clouds.3 mph60%30.00 "Hg10 mi
9:53 AM75 °FBroken clouds.No wind66%30.01 "Hg10 mi
8:53 AM71 °FPartly sunny.No wind73%30.00 "Hg10 mi
7:53 AM68 °FPartly sunny.No wind82%29.99 "Hg10 mi
6:53 AM66 °FPartly cloudy.No wind84%29.99 "Hg10 mi
5:53 AM66 °FPassing clouds.No wind84%29.99 "Hg10 mi
Weather by CustomWeather, © 2015

See weather overviewHow to use our weather pages